Starlink 32651

operational
NORAD ID: 62314 Int'l Des: 2024-239 Owner: SPXS Country: US Constellation: starlink
LEOCIRCULAR

About Starlink 32651

Description loading...

Live Position

Loading 3D Globe...

Upcoming Passes

Altitude History

Altitude vs Time

uPlot chart will show altitude changes over time

Two-Line Element Set

1 62314U 24239P 25351.90647981 .00021006 00000-0 71925-3 0 9992
2 62314 53.1580 213.7161 0000863 80.3667 279.7431 15.30204378 56869
Epoch: Dec 17, 2025 • Age: 25 hours

Current Status

Altitude 494.0 km
Velocity 7.62 km/s
Sub-Earth Point -52.80°S, 65.03°E
Launch Date Dec 13, 2024
Age 1 years
Type internet

Technical Details

Classification Payload
Mass 730.00 kg
Dry Mass 700.00 kg
Total Mass 730.00 kg
Length 0.30 m
Diameter 4.10 m
Span 29.00 m
Shape Box + pan
Manufacturer SPXS
Bus Type Starlink V2M
Phase Status In Orbit
Owner/State SPXS/US

Large Constellations

Loading constellations...